Air Quality Table

TIMESTAMP NO2 SO2 O3 PM10 PM2.5 TEMP HUM AIRPRES WS WD NO
2022-06-26 01:00 25.63 µg/m3 0.13 µg/m3 64.95 µg/m3 51.8 µg/m3 10.02 µg/m3 28.78 °C 39.29 % 1,006.70 mbar 1.49 m/s 207.22 Deg 2.46 µg/m3
2022-06-25 17:00 16.05 µg/m3 0.14 µg/m3 81.46 µg/m3 34.73 µg/m3 9.33 µg/m3 31.23 °C 37.94 % 1,007.35 mbar 3.11 m/s 180.94 Deg 3.67 µg/m3
2022-06-25 09:00 34.68 µg/m3 0.3 µg/m3 32.95 µg/m3 26.33 µg/m3 7.32 µg/m3 28.62 °C 38.59 % 1,006.69 mbar 1.22 m/s 255.43 Deg 9.68 µg/m3
2022-06-25 01:00 30.25 µg/m3 0.18 µg/m3 47.7 µg/m3 43.3 µg/m3 13.15 µg/m3 28.71 °C 52.78 % 1,006.32 mbar 1.4 m/s 231.58 Deg 4.38 µg/m3
2022-06-24 17:00 18.35 µg/m3 0.22 µg/m3 85.69 µg/m3 48.77 µg/m3 12.23 µg/m3 33.28 °C 37.35 % 1,006.57 mbar 2.31 m/s 184.5 Deg 3.66 µg/m3
2022-06-24 09:00 44.71 µg/m3 0.32 µg/m3 58.86 µg/m3 38.66 µg/m3 7.33 µg/m3 29.25 °C 24.12 % 1,006.35 mbar 2.11 m/s 291.48 Deg 10.36 µg/m3
2022-06-24 01:00 21.47 µg/m3 0.15 µg/m3 64.47 µg/m3 38.4 µg/m3 13.06 µg/m3 28.22 °C 49.23 % 1,007.41 mbar 1.51 m/s 238.84 Deg 1.12 µg/m3
2022-06-23 17:00 16.28 µg/m3 0.08 µg/m3 95.15 µg/m3 36.57 µg/m3 9.42 µg/m3 32.84 °C 31.12 % 1,007.48 mbar 2.77 m/s 311.82 Deg 3.1 µg/m3
2022-06-23 09:00 32.53 µg/m3 0.07 µg/m3 62.61 µg/m3 32.76 µg/m3 12.7 µg/m3 26.68 °C 44.8 % 1,007.03 mbar 1.59 m/s 292.6 Deg 5.6 µg/m3
2022-06-23 01:00 18.82 µg/m3 -0.02 µg/m3 79.53 µg/m3 25.68 µg/m3 8.61 µg/m3 27.71 °C 38.88 % 1,006.97 mbar 1.59 m/s 302.37 Deg 1.03 µg/m3
2022-06-22 17:00 11.06 µg/m3 0.02 µg/m3 95.45 µg/m3 30.12 µg/m3 7.29 µg/m3 30.45 °C 42.83 % 1,007.32 mbar 2.63 m/s 279.65 Deg 2.26 µg/m3
2022-06-22 09:00 27.76 µg/m3 0.01 µg/m3 53.49 µg/m3 21.13 µg/m3 9.5 µg/m3 24.87 °C 74.35 % 1,006.91 mbar 1.13 m/s 291.89 Deg 5.9 µg/m3
2022-06-22 01:00 8.85 µg/m3 -0.08 µg/m3 72.69 µg/m3 26.54 µg/m3 10.02 µg/m3 25.54 °C 72.4 % 1,008.06 mbar 1.59 m/s 276.48 Deg 0.87 µg/m3
2022-06-21 17:00 9.42 µg/m3 -0.06 µg/m3 115.02 µg/m3 32.67 µg/m3 10 µg/m3 28.23 °C 59.45 % 1,008.95 mbar 3.34 m/s 194.02 Deg 1.85 µg/m3
2022-06-21 09:00 31.89 µg/m3 0.03 µg/m3 77.78 µg/m3 29.24 µg/m3 12.31 µg/m3 24.49 °C 72.14 % 1,009.05 mbar 1.15 m/s 323.97 Deg 4.35 µg/m3
2022-06-21 01:00 13.06 µg/m3 -0.06 µg/m3 97.94 µg/m3 26.07 µg/m3 9.78 µg/m3 24.74 °C 75.86 % 1,009.41 mbar 1.53 m/s 203.38 Deg 0.86 µg/m3
2022-06-20 17:00 4.38 µg/m3 -0.08 µg/m3 110.74 µg/m3 13.64 µg/m3 6 µg/m3 26.45 °C 61.19 % 1,009.07 mbar 2.96 m/s 187.04 Deg 0.97 µg/m3
2022-06-20 09:00 16.04 µg/m3 -0.04 µg/m3 73.25 µg/m3 26.57 µg/m3 11.87 µg/m3 23.33 °C 87.2 % 1,008.29 mbar 1.31 m/s 125.77 Deg 2.15 µg/m3
2022-06-20 01:00 3.31 µg/m3 -0.08 µg/m3 90.89 µg/m3 24.75 µg/m3 11.98 µg/m3 23.23 °C 94.95 % 1,008.14 mbar 1.84 m/s 103.57 Deg 0.55 µg/m3
2022-06-19 17:00 1.6 µg/m3 -0.1 µg/m3 116.09 µg/m3 18.81 µg/m3 8.14 µg/m3 25.06 °C 81.22 % 1,008.26 mbar 4.33 m/s 175.38 Deg 0.62 µg/m3

It is to be noted that the data is provisional and subject to quality assurance procedures. For validated data kindly refer your request to contact.air@era.org.mt